When you browse on this site, cookies collect data to enhance your experience and personalize the content and advertising you see.
Visit our Privacy Policy to learn more. By continuing to use the site, you agree to this use of cookies and data.
  • In France
  • List of Countries
  • For 7 days
  • Water Temperature
  • Satellite Maps
  • Weather Map
  • Weather Widgets
  • user-avatar
    Login

    Hourly Weather Dobrich

    Today, 25 May, Saturday

    Time Temperature Precipitation Wind Pressure Humidity
    00:00 +13°C° 0 mm 4 mps 733 mmHg 92%
    01:00 +12°C° 0 mm 4 mps 733 mmHg 92%
    02:00 +11°C° 0 mm 4 mps 733 mmHg 92%
    03:00 +11°C° 0 mm 4 mps 734 mmHg 92%
    04:00 +10°C° 0 mm 5 mps 734 mmHg 93%
    05:00 +10°C° 0 mm 5 mps 734 mmHg 93%
    06:00 +12°C° 0 mm 5 mps 734 mmHg 90%
    07:00 +14°C° 0 mm 5 mps 735 mmHg 86%
    08:00 +15°C° 0 mm 6 mps 735 mmHg 81%
    09:00 +17°C° 0.2 mm 5 mps 735 mmHg 77%
    10:00 +19°C° 0.2 mm 5 mps 735 mmHg 73%
    11:00 +21°C° 0.2 mm 4 mps 735 mmHg 69%
    12:00 +21°C° 2 mm 4 mps 735 mmHg 69%
    13:00 +21°C° 2 mm 4 mps 735 mmHg 69%
    14:00 +21°C° 2 mm 3 mps 735 mmHg 69%
    15:00 +21°C° 1.2 mm 3 mps 735 mmHg 71%
    16:00 +21°C° 1.2 mm 3 mps 735 mmHg 72%
    17:00 +21°C° 1.2 mm 3 mps 735 mmHg 73%
    18:00 +19°C° 0.4 mm 3 mps 735 mmHg 78%
    19:00 +18°C° 0.4 mm 3 mps 735 mmHg 83%
    20:00 +17°C° 0.4 mm 3 mps 735 mmHg 88%
    21:00 +16°C° 0 mm 3 mps 736 mmHg 89%
    22:00 +16°C° 0 mm 3 mps 736 mmHg 90%
    23:00 +14°C° 0 mm 3 mps 736 mmHg 91%

    Tomorrow, 26 May, Sunday

    Time Temperature Precipitation Wind Pressure Humidity
    00:00 +14°C° 0 mm 3 mps 737 mmHg 92%
    01:00 +14°C° 0 mm 3 mps 737 mmHg 92%
    02:00 +13°C° 0 mm 4 mps 737 mmHg 92%
    03:00 +13°C° 0 mm 3 mps 737 mmHg 93%
    04:00 +13°C° 0 mm 3 mps 737 mmHg 93%
    05:00 +13°C° 0 mm 3 mps 737 mmHg 93%
    06:00 +16°C° 0 mm 3 mps 738 mmHg 89%
    07:00 +17°C° 0 mm 3 mps 738 mmHg 84%
    08:00 +19°C° 0 mm 3 mps 739 mmHg 80%
    09:00 +21°C° 0.2 mm 2 mps 739 mmHg 74%
    10:00 +23°C° 0.2 mm 2 mps 739 mmHg 68%
    11:00 +25°C° 0.2 mm 1 mps 739 mmHg 62%
    12:00 +25°C° 0.8 mm 1 mps 739 mmHg 61%
    13:00 +25°C° 0.8 mm 1 mps 739 mmHg 61%
    14:00 +25°C° 0.8 mm 2 mps 739 mmHg 61%
    15:00 +25°C° 0.5 mm 2 mps 739 mmHg 63%
    16:00 +25°C° 0.5 mm 2 mps 739 mmHg 65%
    17:00 +25°C° 0.5 mm 2 mps 739 mmHg 67%
    18:00 +23°C° 0.1 mm 2 mps 739 mmHg 74%
    19:00 +20°C° 0.1 mm 3 mps 739 mmHg 82%
    20:00 +18°C° 0.1 mm 3 mps 739 mmHg 89%
    21:00 +17°C° 0 mm 3 mps 739 mmHg 88%
    22:00 +17°C° 0 mm 2 mps 739 mmHg 86%
    23:00 +16°C° 0 mm 2 mps 740 mmHg 85%

    Day after tomorrow, 27 May, Monday

    Time Temperature Precipitation Wind Pressure Humidity
    00:00 +16°C° 0 mm 2 mps 740 mmHg 84%
    01:00 +16°C° 0 mm 2 mps 739 mmHg 84%
    02:00 +16°C° 0 mm 2 mps 739 mmHg 83%
    03:00 +16°C° 0 mm 2 mps 739 mmHg 84%
    04:00 +16°C° 0 mm 2 mps 739 mmHg 85%
    05:00 +16°C° 0 mm 2 mps 739 mmHg 85%
    06:00 +18°C° 0 mm 2 mps 740 mmHg 81%
    07:00 +20°C° 0 mm 2 mps 740 mmHg 77%
    08:00 +22°C° 0 mm 3 mps 740 mmHg 72%
    09:00 +22°C° 0 mm 3 mps 741 mmHg 68%
    10:00 +23°C° 0 mm 4 mps 741 mmHg 64%
    11:00 +25°C° 0 mm 4 mps 741 mmHg 60%
    12:00 +25°C° 0 mm 5 mps 740 mmHg 59%
    13:00 +25°C° 0 mm 5 mps 740 mmHg 58%
    14:00 +25°C° 0 mm 5 mps 740 mmHg 57%
    15:00 +23°C° 0 mm 5 mps 740 mmHg 60%
    16:00 +23°C° 0 mm 5 mps 739 mmHg 63%
    17:00 +22°C° 0 mm 4 mps 739 mmHg 66%
    18:00 +20°C° 0 mm 4 mps 739 mmHg 73%
    19:00 +18°C° 0 mm 3 mps 739 mmHg 81%
    20:00 +16°C° 0 mm 3 mps 739 mmHg 88%
    21:00 +14°C° 0 mm 3 mps 739 mmHg 89%
    22:00 +14°C° 0 mm 3 mps 739 mmHg 90%
    23:00 +13°C° 0 mm 3 mps 739 mmHg 92%

    28 May, Tuesday

    Time Temperature Precipitation Wind Pressure Humidity
    00:00 +13°C° 0 mm 3 mps 739 mmHg 92%
    01:00 +13°C° 0 mm 3 mps 739 mmHg 92%
    02:00 +13°C° 0 mm 3 mps 738 mmHg 93%
    03:00 +13°C° 0 mm 3 mps 738 mmHg 92%
    04:00 +13°C° 0 mm 3 mps 738 mmHg 92%
    05:00 +13°C° 0 mm 3 mps 737 mmHg 91%
    06:00 +16°C° 0 mm 3 mps 737 mmHg 85%
    07:00 +18°C° 0 mm 4 mps 737 mmHg 80%
    08:00 +20°C° 0 mm 5 mps 737 mmHg 74%
    09:00 +21°C° 0 mm 4 mps 737 mmHg 70%
    10:00 +22°C° 0 mm 4 mps 737 mmHg 66%
    11:00 +25°C° 0 mm 4 mps 737 mmHg 62%
    12:00 +25°C° 0 mm 5 mps 736 mmHg 60%
    13:00 +26°C° 0 mm 5 mps 736 mmHg 59%
    14:00 +26°C° 0 mm 5 mps 736 mmHg 57%
    15:00 +26°C° 0 mm 5 mps 735 mmHg 61%
    16:00 +25°C° 0 mm 5 mps 735 mmHg 64%
    17:00 +23°C° 0 mm 5 mps 734 mmHg 67%
    18:00 +21°C° 0 mm 4 mps 734 mmHg 73%
    19:00 +19°C° 0 mm 4 mps 734 mmHg 78%
    20:00 +18°C° 0 mm 4 mps 734 mmHg 84%
    21:00 +17°C° 0 mm 4 mps 734 mmHg 84%
    22:00 +17°C° 0 mm 4 mps 734 mmHg 85%
    23:00 +17°C° 0 mm 4 mps 734 mmHg 85%

    29 May, Wednesday

    Time Temperature Precipitation Wind Pressure Humidity
    00:00 +17°C° 0 mm 4 mps 734 mmHg 84%
    01:00 +17°C° 0 mm 4 mps 734 mmHg 82%
    02:00 +15°C° 0 mm 4 mps 734 mmHg 81%
    03:00 +15°C° 0 mm 4 mps 733 mmHg 80%
    04:00 +14°C° 0 mm 3 mps 733 mmHg 79%
    05:00 +14°C° 0 mm 3 mps 733 mmHg 78%
    06:00 +17°C° 0 mm 3 mps 734 mmHg 74%
    07:00 +19°C° 0 mm 3 mps 734 mmHg 69%
    08:00 +22°C° 0 mm 3 mps 735 mmHg 65%
    09:00 +24°C° 0 mm 3 mps 735 mmHg 61%
    10:00 +26°C° 0 mm 3 mps 735 mmHg 57%
    11:00 +28°C° 0 mm 3 mps 735 mmHg 53%
    12:00 +28°C° 0 mm 3 mps 735 mmHg 51%
    13:00 +29°C° 0 mm 3 mps 735 mmHg 50%
    14:00 +29°C° 0 mm 4 mps 735 mmHg 49%
    15:00 +28°C° 0 mm 4 mps 735 mmHg 52%
    16:00 +28°C° 0 mm 3 mps 735 mmHg 55%
    17:00 +27°C° 0 mm 3 mps 735 mmHg 59%
    18:00 +25°C° 0 mm 3 mps 735 mmHg 65%
    19:00 +22°C° 0 mm 3 mps 735 mmHg 71%
    20:00 +20°C° 0 mm 2 mps 735 mmHg 78%
    21:00 +20°C° 0 mm 2 mps 735 mmHg 78%
    22:00 +20°C° 0 mm 2 mps 736 mmHg 79%
    23:00 +20°C° 0 mm 1 mps 736 mmHg 80%

    30 May, Thursday

    Time Temperature Precipitation Wind Pressure Humidity
    00:00 +20°C° 0 mm 1 mps 736 mmHg 80%
    01:00 +20°C° 0 mm 1 mps 736 mmHg 81%
    02:00 +20°C° 0 mm 1 mps 736 mmHg 82%
    03:00 +19°C° 0 mm 2 mps 737 mmHg 81%
    04:00 +19°C° 0 mm 2 mps 737 mmHg 80%
    05:00 +19°C° 0 mm 2 mps 737 mmHg 80%
    06:00 +20°C° 0 mm 2 mps 737 mmHg 76%
    07:00 +22°C° 0 mm 3 mps 738 mmHg 72%
    08:00 +24°C° 0 mm 3 mps 738 mmHg 68%
    09:00 +25°C° 0.8 mm 3 mps 738 mmHg 66%
    10:00 +26°C° 0.8 mm 3 mps 738 mmHg 63%
    11:00 +27°C° 0.8 mm 3 mps 738 mmHg 61%
    12:00 +27°C° 0.9 mm 2 mps 738 mmHg 58%
    13:00 +28°C° 0.9 mm 2 mps 738 mmHg 55%
    14:00 +28°C° 0.9 mm 2 mps 738 mmHg 53%
    15:00 +28°C° 0.7 mm 1 mps 738 mmHg 56%
    16:00 +27°C° 0.7 mm 1 mps 738 mmHg 59%
    17:00 +27°C° 0.7 mm 1 mps 738 mmHg 62%
    18:00 +25°C° 0.6 mm 1 mps 738 mmHg 68%
    19:00 +23°C° 0.6 mm 1 mps 738 mmHg 74%
    20:00 +22°C° 0.6 mm 1 mps 738 mmHg 80%
    21:00 +21°C° 0.5 mm 1 mps 738 mmHg 81%
    22:00 +21°C° 0.5 mm 1 mps 738 mmHg 82%
    23:00 +20°C° 0.5 mm 1 mps 738 mmHg 82%
    Show more